View from above orbital plane
|
View from above satellite
|
Ground track
|
The orbit data is extracted from the following two-line orbital elements,
1 27601U 02056E 21058.91304510 -.00000057 00000-0 -56775-5 0 9997
2 27601 98.2016 87.1691 0071224 235.9479 173.3403 14.31991050951257
Epoch (UTC): | 27 February 2021 21:54:47 |
Eccentricity: | 0.0071224 |
inclination: | 98.2016° |
perigee height: | 734 km |
apogee height: | 836 km |
right ascension of ascending node: | 87.1691° |
argument of perigee: | 235.9479° |
revolutions per day: | 14.31991050 |
mean anomaly at epoch: | 173.3403° |
orbit number at epoch: | 95125 |
The dashed part of the orbit path shows where the satellite is in the earth's shadow,
|
|